EHI
0 0 0 0 0 0 0 0 0 0 0 0 0 0 0 0 0 0 0 0 0 0 0 0 0 0 0 0 0 0 0 0 0 0 0 0 0 0 0 0 0 0 0 0
0 0 0 0 0 0 0 0 0 0 0 0 0 0 0 0 0 0 0 0 0 0 0 0 0 0 0 0 0 0 0 0 0 0 0 0 0 0 0 0 0 0 0 0
0 0 0 0 0 0 0 0 0 0 0 0 0 0 0 0 0 0 0 0 0 0 0 0 1 1 1 0 0 0 0 0 0 0 0 0 0 0 0 0 0 0 0 0
0 0 0 0 0 0 0 0 0 0 0 0 0 0 0 0 0 0 0 0 0 0 0 0 1 2 1 0 0 0 0 0 0 0 0 0 0 0 0 0 0 0 0 0
0 0 0 0 0 0 0 0 0 0 0 0 0 0 0 0 0 0 0 0 0 0 0 0 1 1 1 0 0 0 0 0 0 0 0 0 0 0 0 0 0 0 0 0
0 0 0 0 0 0 0 0 0 0 0 0 0 0 0 0 0 0 0 0 0 0 0 0 0 0 0 0 0 0 0 0 0 0 0 0 0 0 0 0 0 0 0 0
0 0 0 0 0 0 0 0 0 0 0 0 0 0 0 0 0 0 0 0 0 0 0 0 0 0 0 0 0 0 0 0 0 0 0 0 0 0 0 0 0 0 0 0
0 0 0 0 0 0 0 0 0 0 0 0 0 0 0 0 0 0 0 0 0 0 0 0 0 0 0 0 0 0 0 0 0 0 0 0 0 0 0 0 0 0 0 0
0 0 0 0 0 0 0 0 0 0 0 0 0 0 0 0 0 0 0 0 0 0 0 0 0 0 0 0 0 0 0 0 0 0 0 0 0 0 0 0 0 0 0 0
0 0 0 0 0 0 0 0 0 0 0 0 0 0 0 0 0 0 0 0 0 0 0 0 0 0 0 0 0 0 0 0 0 0 0 0 0 0 0 0 0 0 0 0
0 0 0 0 0 0 0 0 0 0 0 0 0 0 0 0 0 0 0 0 0 0 0 0 0 0 0 0 0 0 0 0 0 0 0 0 0 0 0 0 0 0 0 0
0 0 0 0 0 0 0 0 0 0 0 0 0 0 0 0 0 0 0 0 0 0 0 0 0 0 0 0 0 0 0 0 0 0 0 0 0 0 0 0 0 0 0 0
0 0 0 0 0 0 0 0 0 0 0 0 0 0 0 0 0 0 0 0 0 0 0 0 0 0 0 0 0 0 0 0 0 0 0 0 0 0 0 0 0 0 0 0
0 0 0 0 0 0 0 0 0 0 0 0 0 0 0 0 0 0 0 0 0 0 0 0 0 0 0 0 0 0 0 0 0 0 0 0 0 0 0 0 0 0 0 0
0 0 0 0 0 0 0 0 0 0 0 0 0 0 0 0 0 0 0 0 0 0 0 0 0 0 0 0 0 0 0 0 0 0 0 0 0 0 0 0 0 0 0 0
0 0 0 0 0 0 0 0 0 0 0 0 0 0 0 0 0 0 0 0 0 0 0 0 0 0 0 0 0 0 0 0 0 0 0 0 0 0 0 0 0 0 0 0
0 0 0 0 0 0 0 0 0 0 0 0 0 0 0 0 0 0 0 0 0 0 0 0 0 0 0 0 0 0 0 0 0 0 0 0 0 0 0 0 0 0 0 0
0 0 0 0 0 0 0 0 0 0 0 0 0 0 0 0 0 0 0 0 0 0 0 0 0 0 0 0 0 0 0 0 0 0 0 0 0 0 0 0 0 0 0 0
0 0 0 0 0 0 0 0 0 0 0 0 0 0 0 0 0 0 0 0 0 0 0 0 0 0 0 0 0 0 0 0 0 0 0 0 0 0 0 0 0 0 0 0
0 0 0 0 0 0 0 0 0 0 0 0 0 0 0 0 0 0 0 0 0 0 0 0 0 0 0 0 0 0 0 0 0 0 0 0 0 0 0 0 0 0 0 0
0 0 0 0 0 0 0 0 0 0 0 0 0 0 0 0 0 0 0 0 0 0 0 0 0 0 0 0 0 0 0 0 0 0 0 0 0 0 0 0 0 0 0 0
0 0 0 0 0 0 0 0 0 0 0 0 0 0 0 0 0 0 0 0 0 0 0 0 0 0 0 0 0 0 0 0 0 0 0 0 0 0 0 0 0 0 0 0
0 0 0 0 0 0 0 0 0 0 0 0 0 0 0 0 0 0 0 0 0 0 0 0 0 0 0 0 0 0 0 0 0 0 0 0 0 0 0 0 0 0 0 0
0 0 0 0 0 0 0 0 0 0 0 0 0 0 0 0 0 0 0 0 0 0 0 0 0 0 0 0 0 0 0 0 0 0 0 0 0 0 0 0 0 0 0 0
0 0 0 0 0 0 0 0 0 0 0 0 0 0 0 0 0 0 0 0 0 0 0 0 0 0 0 0 0 0 0 0 0 0 0 0 0 0 0 0 0 0 0 0
0 0 0 0 0 0 0 0 0 0 0 0 0 0 0 0 0 0 0 0 0 0 0 0 0 0 0 0 0 0 0 0 0 0 0 0 0 0 0 0 0 0 0 0
Wind_Speed
0 2 2 3 4 4 4 6 7 5 2 5 8 9 8 4 4 4 3 3 3 3 3 3 3 3 3 2 2 3 3 3 3 2 2 2 2 2 3 3 3 4 4 5
3 3 2 2 2 3 5 5 6 4 2 5 7 9 5 2 2 2 2 2 2 2 3 3 4 3 3 3 2 2 3 4 4 3 2 2 2 2 2 2 3 3 4 4
3 0 1 2 2 3 5 5 4 4 5 4 5 5 3 2 1 2 2 2 2 2 3 4 4 4 3 3 3 2 2 3 3 3 2 2 2 2 2 3 3 4 4 5
2 1 2 2 2 3 4 3 4 4 4 2 3 4 2 1 0 2 3 3 3 4 4 5 5 5 4 4 3 3 3 2 3 3 4 5 4 4 4 3 3 3 4 5
1 1 2 3 3 3 3 3 3 4 4 4 3 5 2 1 1 2 3 3 4 5 5 5 6 6 5 5 4 3 3 2 2 3 5 5 5 4 3 3 4 4 4 4
0 1 2 2 3 2 1 2 1 2 3 4 3 5 3 1 1 2 2 4 4 5 6 6 6 6 5 5 4 4 3 3 2 2 4 5 6 5 4 4 4 3 3 4
1 1 0 1 1 1 1 2 1 2 3 3 2 4 4 2 2 2 2 3 4 5 6 6 7 6 6 6 5 4 3 3 3 2 3 4 5 5 5 5 4 4 3 3
2 2 1 1 2 2 2 2 2 3 3 1 2 5 0 2 2 2 2 2 4 5 6 6 6 6 6 6 5 5 4 4 3 3 2 3 3 3 3 4 4 4 3 3
3 2 1 1 2 2 2 2 2 1 2 4 4 3 2 1 1 2 2 3 4 5 5 6 6 6 6 6 6 5 4 4 4 3 3 3 3 3 4 4 4 3 4 4
2 3 2 1 2 0 2 1 2 2 3 4 4 4 2 1 1 2 3 4 5 5 6 6 6 6 6 6 6 5 4 4 4 4 3 2 3 3 3 4 4 4 4 4
2 2 2 2 3 3 2 2 2 2 3 4 4 1 3 1 1 2 3 4 5 6 6 6 6 6 6 5 5 5 5 4 4 4 4 3 3 3 3 3 4 3 3 4
1 2 3 3 1 2 2 2 3 3 3 4 4 2 3 2 2 3 4 4 5 6 6 6 6 5 5 5 5 5 5 4 4 4 4 3 3 3 3 3 3 2 3 3
2 2 2 2 4 3 3 2 2 1 1 3 5 3 3 2 4 4 4 5 5 6 6 6 5 5 5 5 5 5 5 5 4 4 4 3 2 2 2 2 2 2 2 3
2 2 5 5 2 2 4 4 3 3 4 5 7 7 4 5 6 6 6 6 6 5 5 6 6 5 5 5 5 5 5 5 4 4 3 3 3 3 2 2 2 2 2 2
1 3 4 6 5 4 6 6 6 7 7 7 7 8 9 7 7 6 6 6 6 6 6 6 6 6 5 5 5 5 5 5 4 3 3 3 3 3 2 2 2 1 1 1
1 2 2 4 3 4 6 8 8 8 8 9 10 10 7 7 6 5 5 6 6 7 7 7 7 7 7 6 6 6 5 5 4 3 3 3 2 2 2 2 2 1 1 1
3 3 2 2 2 3 5 5 7 5 5 5 7 6 6 7 7 6 6 6 6 7 8 8 7 7 7 7 7 6 5 4 3 2 3 2 2 2 2 2 2 1 1 1
3 3 1 2 1 5 0 1 3 4 4 4 5 5 6 7 8 6 5 5 7 8 8 8 7 7 7 7 7 6 4 3 2 2 2 2 2 2 2 2 2 2 2 1
3 3 2 2 3 6 2 1 2 3 3 2 4 6 7 8 7 3 3 5 7 8 8 7 7 7 7 6 5 4 3 3 2 2 2 2 2 2 2 2 2 2 2 2
2 2 2 3 4 5 1 1 0 2 3 1 3 5 6 6 4 3 6 8 8 8 7 7 6 6 6 6 5 3 2 2 3 3 3 3 2 2 2 2 2 2 2 2
3 3 4 5 5 5 1 0 2 3 2 2 3 4 4 4 5 7 9 9 8 7 7 6 5 5 5 5 4 3 3 3 3 3 2 2 2 2 2 2 2 2 1 2
5 5 5 5 6 5 2 2 2 2 3 3 3 4 5 6 7 8 8 8 7 6 6 5 4 5 5 5 4 3 4 3 3 2 2 2 2 2 2 2 2 2 2 2
5 4 3 5 3 1 2 2 1 2 3 3 4 5 5 6 7 7 7 7 7 6 5 5 4 4 5 4 4 3 4 3 2 2 2 2 2 2 2 2 2 2 2 2
3 2 4 5 5 4 3 3 4 3 4 5 5 5 5 6 7 7 7 6 6 5 5 4 4 4 5 5 4 4 4 3 2 2 2 2 2 3 3 2 2 2 2 2
3 4 4 6 5 4 5 5 4 4 4 5 5 5 5 6 7 7 6 6 5 4 4 3 4 4 5 5 5 4 4 3 2 2 2 2 2 2 2 2 2 3 3 3
5 5 6 5 4 4 4 3 3 4 4 5 5 6 5 5 6 6 5 5 4 4 4 3 4 4 5 5 5 4 3 3 2 2 2 1 1 2 2 2 2 3 3 5
Wind_Direction
263 218 220 233 247 266 246 252 266 278 294 282 269 273 275 267 250 256 271 278 274 287 317 347 345 333 301 261 253 254 257 235 218 212 210 201 203 203 204 203 198 197 195 189
190 225 278 272 246 240 239 256 275 283 289 279 279 274 267 238 244 282 307 317 308 324 351 5 3 353 341 329 311 278 262 242 222 215 208 206 207 215 219 211 199 203 200 195
215 34 279 223 223 262 257 254 280 296 302 248 276 251 183 154 100 6 353 351 3 360 356 355 359 355 349 334 319 305 279 249 229 215 198 190 191 202 211 218 208 210 207 201
226 258 238 235 259 273 262 274 275 286 278 268 294 276 176 155 168 7 0 4 9 7 2 357 350 346 340 329 318 309 291 262 239 219 209 205 209 212 219 221 216 216 216 207
194 261 247 252 294 276 279 301 270 269 261 268 231 257 257 134 296 341 357 4 11 10 7 359 349 343 338 334 326 316 305 287 256 228 220 217 222 225 217 215 216 219 217 211
321 309 295 290 305 255 263 254 200 220 233 248 226 237 264 141 307 336 359 6 8 4 3 356 352 349 342 342 335 326 315 306 293 260 233 223 222 222 216 220 218 217 221 211
276 181 33 309 274 182 280 256 246 221 221 242 154 239 265 35 2 336 330 351 359 360 357 354 354 349 344 342 335 327 321 314 307 280 250 233 226 226 224 223 225 223 225 220
248 227 157 337 297 260 243 251 250 267 271 277 207 244 256 64 22 8 4 357 360 2 360 353 350 346 343 342 336 333 330 326 323 308 288 261 235 227 231 229 230 235 238 235
236 245 113 335 313 267 207 208 332 285 287 263 241 251 239 134 42 21 16 7 1 353 354 353 354 355 349 347 343 337 336 333 330 320 308 287 254 235 238 236 229 234 238 243
242 249 244 273 209 55 310 161 185 221 259 258 249 248 255 191 295 338 351 349 345 344 349 352 354 355 351 349 349 350 348 340 333 328 318 299 275 249 246 240 229 232 237 239
225 224 228 204 215 215 167 182 220 219 277 273 274 261 42 355 317 298 320 332 337 341 343 345 349 353 352 353 353 353 350 346 341 334 322 307 288 266 250 243 236 233 236 241
200 231 248 231 190 302 252 236 214 239 240 249 272 293 62 21 0 324 325 334 342 344 341 341 342 347 351 352 351 349 345 340 334 325 316 309 299 278 259 250 251 245 242 247
168 197 251 199 182 190 217 224 224 257 242 232 245 257 86 31 349 344 337 334 337 338 335 335 336 341 346 345 343 341 338 332 326 323 320 317 305 291 281 270 260 257 253 251
177 208 238 255 282 186 222 229 220 217 232 245 248 271 284 320 333 336 333 327 325 327 327 328 330 332 335 334 335 333 330 329 324 321 316 313 313 304 303 293 279 268 254 248
194 230 244 269 272 254 246 242 227 226 237 250 270 279 296 319 317 317 323 326 323 325 325 325 321 321 323 325 325 323 321 324 317 309 311 319 324 333 333 312 304 296 273 263
174 227 235 257 244 253 262 257 241 237 241 250 270 281 312 318 314 314 319 322 321 321 320 320 317 317 316 314 313 312 312 317 312 306 312 324 330 344 339 323 318 324 339 336
184 184 212 250 313 278 260 239 217 218 230 235 254 282 319 319 321 313 314 317 317 318 317 316 314 312 310 308 305 302 304 308 308 316 325 327 331 336 329 326 324 326 329 348
173 174 215 281 290 243 294 60 200 212 248 250 270 300 315 314 313 304 308 312 316 316 314 312 312 314 315 311 306 305 311 317 327 332 333 333 327 323 322 322 324 332 341 348
202 184 187 218 258 269 261 197 185 213 259 261 269 290 309 317 304 293 331 325 317 313 309 307 309 311 314 312 308 306 316 323 330 330 341 344 336 338 339 343 344 343 345 343
135 177 199 207 246 255 7 89 85 208 242 83 295 302 314 316 304 332 343 325 319 317 315 316 318 322 324 326 328 334 344 348 344 342 345 346 349 349 349 354 350 341 326 328
159 180 210 224 243 266 352 307 196 225 321 350 304 301 300 291 294 310 315 316 317 317 319 322 323 328 328 329 334 343 347 340 335 339 350 355 353 354 354 353 348 350 343 347
189 187 198 203 224 247 98 142 202 303 346 314 303 301 294 291 298 303 310 315 318 320 323 326 328 330 331 335 338 339 336 335 340 346 358 5 7 4 356 1 357 356 356 4
215 219 210 214 231 29 153 200 255 299 286 295 296 296 290 289 294 304 308 312 314 315 319 325 326 327 335 342 340 332 328 334 344 353 360 4 8 6 1 3 359 351 347 351
216 227 229 247 254 255 244 249 270 280 280 289 288 286 280 284 291 299 304 309 313 316 318 323 327 329 331 337 337 328 327 333 340 347 353 2 7 9 6 355 352 349 343 337
232 189 220 246 262 272 248 253 271 282 289 291 292 288 285 287 290 293 298 302 306 309 312 318 321 321 324 331 333 338 339 339 336 341 352 353 1 4 1 360 355 347 340 332
211 207 217 241 235 234 262 272 271 269 282 286 292 295 294 288 287 293 296 301 306 309 314 317 323 324 324 328 328 333 334 331 329 338 348 347 351 352 350 355 3 20 359 355